Flag for U.S.A. Weather past 2 weeks in Monterey, California, U.S.A.

Now
61 °F

Low clouds.


Feels Like: 61 °F
Forecast: 57 / 65 °F
Wind: 3 mph from South

Location: Monterey Peninsula Airport

Current Time: Jul 3, 2015 at 9:27:57 PM

Latest Report: Jul 3, 2015 at 8:54 PM


Visibility: 10 mi

Pressure: 29.96 "Hg

Humidity: 87%

Dew point: 57 °F

Location of MontereyLocation

Historic Weather in Monterey — Graph

°F

Monterey temperature yesterday

Maximum temperature yesterday: 73 °F (at 12:54 PM)
Minimum temperature yesterday: 57 °F (at 1:54 AM)
Average temperature yesterday: 62 °F

Past Weeks' High & Low Weather Summary

 TemperatureHumidityPressure
High77 °F (Jul 1, 1:54 PM)97% (Jun 30, 6:54 AM)30.11 "Hg (Jun 30, 6:54 AM)
Low51 °F (Jun 19, 1:54 AM)43% (Jun 25, 1:54 PM)29.85 "Hg (Jul 1, 3:57 AM)
Average60 °F77%30.01 "Hg
* Reported Jun 18 7:54 PM — Jul 3 7:54 PM, Monterey, Weather by CustomWeather, © 2015

Note: Actual official high and low records may vary slightly from our data, if they occured in-between our weather recording intervals... More about our weather records

Advertising

Monterey weather history for previous 24 hours

 ConditionsComfort  
Time TempWeatherWind HumidityBarometerVisibility
7:54 PM
Fri, Jul 3
61 °FFog.6 mph87%29.95 "Hg6 mi
6:54 PM63 °FLow clouds.7 mph81%29.95 "Hg10 mi
5:54 PM66 °FSunny.8 mph73%29.94 "Hg10 mi
4:54 PM68 °FSunny.10 mph68%29.95 "Hg10 mi
3:54 PM70 °FSunny.12 mph64%29.96 "Hg10 mi
2:54 PM70 °FSunny.12 mph61%29.97 "Hg10 mi
1:54 PM71 °FSunny.10 mph61%29.98 "Hg10 mi
12:54 PM69 °FSunny.8 mph66%29.99 "Hg10 mi
11:54 AM66 °FSunny.8 mph70%30.00 "Hg10 mi
10:54 AM66 °FPassing clouds.8 mph70%30.01 "Hg10 mi
9:54 AM64 °FScattered clouds.3 mph75%30.02 "Hg10 mi
8:54 AM61 °FLow clouds.3 mph81%30.03 "Hg10 mi
7:54 AM60 °FLow clouds.6 mph86%30.02 "Hg7 mi
6:54 AM59 °FLow clouds.5 mph90%30.01 "Hg10 mi
5:54 AM60 °FLow clouds.5 mph86%29.99 "Hg10 mi
4:54 AM60 °FLow clouds.3 mph90%29.98 "Hg10 mi
3:54 AM60 °FLow clouds.No wind90%29.98 "Hg10 mi
2:54 AM60 °FPassing clouds.3 mph90%29.99 "Hg10 mi
1:54 AM61 °FLow clouds.No wind90%29.99 "Hg10 mi
12:54 AM61 °FLow clouds.3 mph90%30.00 "Hg10 mi
11:54 PM
Thu, Jul 2
61 °FLow clouds.No wind90%30.00 "Hg10 mi
10:54 PM62 °FLow clouds.No wind86%30.00 "Hg10 mi
9:54 PM62 °FLow clouds.3 mph86%30.01 "Hg9 mi
Weather by CustomWeather, © 2015

See weather overviewHow to use our weather pages